This demonstration page uses our WeatherBlox Daily Observations layout. Learn more.

Left ArrowRight Arrow

39.95238, -75.16362

Hourly Observations for June 18, 2022

Temp ( °F °C ) Dew Point ( °F °C ) Humidity (%) Winds ( mph kmh ) Pressure ( in mb ) Visibility ( mi km ) Precip ( " mm )
12:54 am 00:54 Mostly Clear 79 26.1 50 10 36 36 WNW 7 11 29.67 1005 10 16 0.00 0.00
1:54 am 01:54 Mostly Clear 78 25.6 50 10 37 37 WNW 9 15 29.68 1005 10 16 0.00 0.00
2:54 am 02:54 Mostly Clear 74 23.3 51 10.6 45 45 W 8 13 29.67 1005 10 16 0.00 0.00
3:54 am 03:54 Mostly Clear 72 22.2 52 11.1 50 50 WSW 8 13 29.67 1005 10 16 0.00 0.00
4:54 am 04:54 Mostly Cloudy 73 22.8 52 11.1 48 48 W 12 19 29.67 1005 10 16 0.00 0.00
5:54 am 05:54 Partly Cloudy 74 23.3 52 11.1 46 46 WNW 14 22 29.69 1005 10 16 0.00 0.00
6:54 am 06:54 Partly Cloudy 73 22.8 52 11.1 48 48 NW 16 26 29.70 1006 10 16 0.00 0.00
7:54 am 07:54 Partly Cloudy 73 22.8 51 10.6 46 46 NNW 16 26 29.72 1006 10 16 0.00 0.00
8:54 am 08:54 Partly Cloudy 72 22.2 48 8.9 43 43 NW 20 31 29.72 1007 10 16 0.00 0.00
9:54 am 09:54 Partly Cloudy 72 22.2 49 9.4 44 44 NNW 21 33 29.73 1007 10 16 0.00 0.00
10:54 am 10:54 Mostly Cloudy 72 22.2 49 9.4 44 44 NNW 24 39 29.75 1008 10 16 0.00 0.00
11:54 am 11:54 Mostly Cloudy 71 21.7 53 11.7 53 53 N 15 24 29.76 1008 10 16 0.00 0.00
12:54 pm 12:54 Mostly Cloudy 70 21.1 49 9.4 47 47 NW 21 33 29.78 1008 10 16 0.00 0.00
1:54 pm 13:54 Mostly Cloudy 69 20.6 49 9.4 49 49 NNW 14 22 29.79 1009 10 16 0.00 0.00
2:54 pm 14:54 Mostly Cloudy 70 21.1 48 8.9 46 46 NW 25 41 29.81 1010 10 16 0.00 0.00
3:54 pm 15:54 Mostly Cloudy 71 21.7 48 8.9 44 44 WNW 20 31 29.83 1010 10 16 0.00 0.00
4:54 pm 16:54 Mostly Cloudy 72 22.2 48 8.9 43 43 N 15 24 29.83 1010 10 16 0.00 0.00
5:54 pm 17:54 Partly Cloudy 70 21.1 46 7.8 42 42 NNW 22 35 29.83 1010 10 16 0.00 0.00
6:54 pm 18:54 Partly Cloudy 71 21.7 45 7.2 39 39 N 16 26 29.85 1011 10 16 0.00 0.00
7:54 pm 19:54 Mostly Sunny 68 20 45 7.2 44 44 N 17 28 29.87 1012 10 16 0.00 0.00
8:54 pm 20:54 Mostly Clear 66 18.9 43 6.1 43 43 N 12 19 29.90 1012 10 16 0.00 0.00
9:54 pm 21:54 Mostly Clear 64 17.8 43 6.1 46 46 N 8 13 29.91 1013 10 16 0.00 0.00
10:54 pm 22:54 Mostly Clear 64 17.8 43 6.1 46 46 N 10 17 29.93 1014 10 16 0.00 0.00
11:54 pm 23:54 Mostly Clear 65 18.3 38 3.3 37 37 NW 15 24 29.94 1014 10 16 0.00 0.00

Powered by AerisWeather